,,,PA_Meas_PMT16A,,PR_Meas_QMR101_102,,RH_Meas_QMH101,,SR_Meas_QMS101,,TA_Meas_QMH101,,GenWind,,GenWind,
date,time,status,PA,status,PR,status,RH,status,SR,status,TA,status,DirAvg,status,SpdAvg,
2012-06-24, 00:00:04,VALID,1001.74,VALID,0,VALID,83.7656,VALID,0,VALID,24.072,VALID,71,VALID,0.980859,
2012-06-24, 00:01:04,VALID,1001.7,VALID,0,VALID,85.3983,VALID,0,VALID,23.9939,VALID,54,VALID,1.54961,
2012-06-24, 00:02:04,VALID,1001.66,VALID,0,VALID,87.1608,VALID,0,VALID,23.8945,VALID,48,VALID,1.16953,
2012-06-24, 00:03:04,VALID,1001.66,VALID,0,VALID,87.176,VALID,0,VALID,23.797,VALID,43,VALID,1.00312,
2012-06-24, 00:04:04,VALID,1001.67,VALID,0,VALID,87.4889,VALID,0,VALID,23.7189,VALID,40,VALID,1.17305,
2012-06-24, 00:05:04,VALID,1001.64,VALID,0,VALID,88.0687,VALID,0,VALID,23.6427,VALID,40,VALID,1.17773,
2012-06-24, 00:06:04,VALID,1001.63,VALID,0,VALID,88.6257,VALID,0,VALID,23.6232,VALID,40,VALID,1.04375,
2012-06-24, 00:07:04,VALID,1001.62,VALID,0,VALID,88.8622,VALID,0,VALID,23.6019,VALID,40,VALID,0.883594,
2012-06-24, 00:08:04,VALID,1001.64,VALID,0,VALID,89.2055,VALID,0,VALID,23.5628,VALID,40,VALID,0.810156,
2012-06-24, 00:09:04,VALID,1001.62,VALID,0,VALID,89.8159,VALID,0,VALID,23.5841,VALID,35,VALID,0.982813,
2012-06-24, 00:10:04,VALID,1001.61,VALID,0,VALID,89.854,VALID,0,VALID,23.5841,VALID,25,VALID,1.09063,
2012-06-24, 00:11:04,VALID,1001.58,VALID,0,VALID,89.6938,VALID,0,VALID,23.5841,VALID,14,VALID,1.23203,
2012-06-24, 00:12:04,VALID,1001.58,VALID,0,VALID,89.6786,VALID,0,VALID,23.5841,VALID,13,VALID,1.15352,
2012-06-24, 00:13:04,VALID,1001.56,VALID,0,VALID,89.6099,VALID,0,VALID,23.5646,VALID,13,VALID,0.999219,
2012-06-24, 00:14:04,VALID,1001.57,VALID,0,VALID,89.7777,VALID,0,VALID,23.5238,VALID,13,VALID,0.796094,
2012-06-24, 00:15:04,VALID,1001.57,VALID,0,VALID,89.8311,VALID,0,VALID,23.5451,VALID,13,VALID,0.489844,
2012-06-24, 00:16:04,VALID,1001.54,VALID,0,VALID,89.8769,VALID,0,VALID,23.5043,VALID,13,VALID,0.301953,
2012-06-24, 00:17:04,VALID,1001.52,VALID,0,VALID,89.9761,VALID,0,VALID,23.5043,VALID,13,VALID,0.434766,
2012-06-24, 00:18:04,VALID,1001.48,VALID,0,VALID,90.1363,VALID,0,VALID,23.5061,VALID,13,VALID,0.553516,
2012-06-24, 00:19:04,VALID,1001.5,VALID,0,VALID,90.0524,VALID,0,VALID,23.4866,VALID,13,VALID,0.311719,
2012-06-24, 00:20:04,VALID,1001.46,VALID,0,VALID,90.1134,VALID,0,VALID,23.4866,VALID,13,VALID,0.411328,
2012-06-24, 00:21:04,VALID,1001.43,VALID,0,VALID,90.1287,VALID,0,VALID,23.4458,VALID,345,VALID,0.630859,
2012-06-24, 00:22:04,VALID,1001.43,VALID,0,VALID,90.0524,VALID,0,VALID,23.4671,VALID,317,VALID,0.561328,
2012-06-24, 00:23:04,VALID,1001.39,VALID,0,VALID,90.144,VALID,0,VALID,23.4671,VALID,317,VALID,0.360156,
2012-06-24, 00:24:04,VALID,1001.39,VALID,0,VALID,90.1516,VALID,0,VALID,23.4671,VALID,317,VALID,0.373047,
2012-06-24, 00:25:04,VALID,1001.34,VALID,0,VALID,90.1821,VALID,0,VALID,23.4653,VALID,317,VALID,0.474609,
2012-06-24, 00:26:04,VALID,1001.32,VALID,0,VALID,90.1287,VALID,0,VALID,23.4653,VALID,317,VALID,0.495313,
2012-06-24, 00:27:04,VALID,1001.32,VALID,0,VALID,90.0066,VALID,0,VALID,23.5043,VALID,317,VALID,0.317578,
2012-06-24, 00:28:04,VALID,1001.32,VALID,0,VALID,89.938,VALID,0,VALID,23.5256,VALID,317,VALID,0.222266,
2012-06-24, 00:29:04,VALID,1001.3,VALID,0,VALID,90.0219,VALID,0,VALID,23.5451,VALID,317,VALID,0.260547,
2012-06-24, 00:30:04,VALID,1001.3,VALID,0,VALID,90.1363,VALID,0,VALID,23.5238,VALID,317,VALID,0.455859,
2012-06-24, 00:31:04,VALID,1001.32,VALID,0,VALID,90.0982,VALID,0.104696,VALID,23.5256,VALID,317,VALID,0.214844,
2012-06-24, 00:32:04,VALID,1001.33,VALID,0,VALID,89.9227,VALID,0,VALID,23.5256,VALID,317,VALID,0,
2012-06-24, 00:33:04,VALID,1001.32,VALID,0,VALID,90.0066,VALID,0,VALID,23.5256,VALID,317,VALID,0.0492188,
2012-06-24, 00:34:04,VALID,1001.32,VALID,0,VALID,90.1134,VALID,0,VALID,23.5256,VALID,317,VALID,0.0046875,
2012-06-24, 00:35:04,VALID,1001.29,VALID,0,VALID,90.3347,VALID,0,VALID,23.5256,VALID,317,VALID,0.163281,
2012-06-24, 00:36:04,VALID,1001.3,VALID,0,VALID,90.1363,VALID,0,VALID,23.4848,VALID,317,VALID,0.00195313,
2012-06-24, 00:37:04,VALID,1001.25,VALID,0,VALID,90.0753,VALID,0,VALID,23.4671,VALID,317,VALID,0.263672,
2012-06-24, 00:38:04,VALID,1001.23,VALID,0,VALID,90.0371,VALID,0,VALID,23.4475,VALID,317,VALID,0.203516,
2012-06-24, 00:39:04,VALID,1001.19,VALID,0,VALID,89.6175,VALID,0,VALID,23.4671,VALID,164,VALID,1.03086,
2012-06-24, 00:40:04,VALID,1001.18,VALID,0,VALID,88.5112,VALID,0,VALID,23.6232,VALID,159,VALID,1.03789,
2012-06-24, 00:41:04,VALID,1001.18,VALID,0,VALID,87.382,VALID,0,VALID,23.7793,VALID,160,VALID,1.34102,
2012-06-24, 00:42:04,VALID,1001.16,VALID,0,VALID,86.2529,VALID,0,VALID,23.9159,VALID,154,VALID,1.54961,
2012-06-24, 00:43:04,VALID,1001.2,VALID,0,VALID,85.5204,VALID,0,VALID,24.0329,VALID,157,VALID,1.5418,
2012-06-24, 00:44:04,VALID,1001.21,VALID,0,VALID,84.91,VALID,0,VALID,24.111,VALID,150,VALID,1.44062,
2012-06-24, 00:45:04,VALID,1001.21,VALID,0,VALID,84.6277,VALID,0,VALID,24.1305,VALID,149,VALID,1.19766,
2012-06-24, 00:46:04,VALID,1001.18,VALID,0,VALID,84.5515,VALID,0,VALID,24.1305,VALID,146,VALID,1.54531,
2012-06-24, 00:47:04,VALID,1001.21,VALID,0,VALID,84.6354,VALID,0,VALID,24.1305,VALID,149,VALID,1.33789,
2012-06-24, 00:48:04,VALID,1001.22,VALID,0,VALID,84.7651,VALID,0,VALID,24.0897,VALID,157,VALID,1.33359,
2012-06-24, 00:49:04,VALID,1001.21,VALID,0,VALID,84.7422,VALID,0,VALID,24.0915,VALID,159,VALID,1.3918,
2012-06-24, 00:50:04,VALID,1001.17,VALID,0,VALID,84.6888,VALID,0,VALID,24.0897,VALID,149,VALID,1.07852,
2012-06-24, 00:51:04,VALID,1001.16,VALID,0,VALID,84.4217,VALID,0,VALID,24.111,VALID,157,VALID,1.31055,
2012-06-24, 00:52:04,VALID,1001.18,VALID,0,VALID,83.7198,VALID,0,VALID,24.15,VALID,177,VALID,1.98281,
2012-06-24, 00:53:04,VALID,1001.16,VALID,0,VALID,83.1476,VALID,0,VALID,24.2281,VALID,178,VALID,1.93438,
2012-06-24, 00:54:04,VALID,1001.13,VALID,0,VALID,82.583,VALID,0,VALID,24.2866,VALID,155,VALID,1.47734,
2012-06-24, 00:55:04,VALID,1001.12,VALID,0,VALID,82.3846,VALID,0,VALID,24.3062,VALID,156,VALID,1.86758,
2012-06-24, 00:56:04,VALID,1001.09,VALID,0,VALID,82.316,VALID,0,VALID,24.3257,VALID,164,VALID,1.52188,
2012-06-24, 00:57:04,VALID,1001.04,VALID,0,VALID,82.1481,VALID,0,VALID,24.3062,VALID,164,VALID,1.37617,
2012-06-24, 00:58:04,VALID,1001.03,VALID,0,VALID,82.1634,VALID,0,VALID,24.2866,VALID,150,VALID,1.39375,
2012-06-24, 00:59:04,VALID,1001.04,VALID,0,VALID,82.171,VALID,0,VALID,24.2458,VALID,158,VALID,1.44727,
2012-06-24, 01:00:04,VALID,1000.99,VALID,0,VALID,81.5149,VALID,0,VALID,24.2671,VALID,152,VALID,1.42773,
2012-06-24, 01:01:04,VALID,1000.99,VALID,0,VALID,80.5459,VALID,0,VALID,24.2671,VALID,148,VALID,1.12227,
2012-06-24, 01:02:04,VALID,1001,VALID,0,VALID,80.2255,VALID,0,VALID,24.2476,VALID,147,VALID,1.61914,
2012-06-24, 01:03:04,VALID,1000.97,VALID,0,VALID,79.7829,VALID,0,VALID,24.2866,VALID,147,VALID,1.18047,
2012-06-24, 01:04:04,VALID,1000.93,VALID,0,VALID,79.2412,VALID,0,VALID,24.2671,VALID,146,VALID,1.63164,
2012-06-24, 01:05:04,VALID,1000.92,VALID,0,VALID,79.1192,VALID,0,VALID,24.3062,VALID,146,VALID,1.30859,
2012-06-24, 01:06:04,VALID,1000.93,VALID,0,VALID,79.2336,VALID,0,VALID,24.3062,VALID,145,VALID,1.28672,
2012-06-24, 01:07:04,VALID,1000.91,VALID,0,VALID,79.1344,VALID,0,VALID,24.3062,VALID,142,VALID,1.42031,
2012-06-24, 01:08:04,VALID,1000.92,VALID,0,VALID,79.1421,VALID,0,VALID,24.2866,VALID,141,VALID,1.13555,
2012-06-24, 01:09:04,VALID,1000.91,VALID,0,VALID,79.4091,VALID,0,VALID,24.2653,VALID,141,VALID,0.821875,
2012-06-24, 01:10:04,VALID,1000.9,VALID,0,VALID,79.2794,VALID,0,VALID,24.2476,VALID,150,VALID,1.07734,
2012-06-24, 01:11:04,VALID,1000.93,VALID,0,VALID,78.8216,VALID,0,VALID,24.2671,VALID,162,VALID,1.28164,
2012-06-24, 01:12:04,VALID,1000.91,VALID,0,VALID,78.3791,VALID,0,VALID,24.3257,VALID,158,VALID,1.2082,
2012-06-24, 01:13:04,VALID,1000.93,VALID,0,VALID,77.8832,VALID,0,VALID,24.3647,VALID,157,VALID,1.04961,
2012-06-24, 01:14:04,VALID,1000.95,VALID,0,VALID,77.5627,VALID,0,VALID,24.4037,VALID,155,VALID,1.00234,
2012-06-24, 01:15:04,VALID,1000.94,VALID,0,VALID,77.2118,VALID,0,VALID,24.4623,VALID,149,VALID,1.27969,
2012-06-24, 01:16:04,VALID,1000.94,VALID,0,VALID,77.3567,VALID,0,VALID,24.4818,VALID,151,VALID,1.00039,
2012-06-24, 01:17:04,VALID,1000.94,VALID,0,VALID,77.288,VALID,0,VALID,24.4818,VALID,151,VALID,1.21523,
2012-06-24, 01:18:04,VALID,1000.96,VALID,0,VALID,77.5475,VALID,0,VALID,24.4604,VALID,155,VALID,0.845312,
2012-06-24, 01:19:04,VALID,1000.91,VALID,0,VALID,77.3338,VALID,0,VALID,24.4409,VALID,171,VALID,1.2043,
2012-06-24, 01:20:04,VALID,1000.94,VALID,0,VALID,76.8913,VALID,0,VALID,24.4818,VALID,178,VALID,1.4418,
2012-06-24, 01:21:04,VALID,1000.9,VALID,0,VALID,76.7311,VALID,0,VALID,24.5013,VALID,178,VALID,1.20117,
2012-06-24, 01:22:04,VALID,1000.89,VALID,0,VALID,76.4641,VALID,0,VALID,24.5209,VALID,178,VALID,0.994531,
2012-06-24, 01:23:04,VALID,1000.86,VALID,0,VALID,76.0597,VALID,0,VALID,24.5599,VALID,170,VALID,1.0543,
2012-06-24, 01:24:04,VALID,1000.87,VALID,0,VALID,75.8918,VALID,0,VALID,24.5775,VALID,169,VALID,1.17305,
2012-06-24, 01:25:04,VALID,1000.88,VALID,0,VALID,75.8842,VALID,0,VALID,24.5971,VALID,177,VALID,1.23789,
2012-06-24, 01:26:04,VALID,1000.87,VALID,0,VALID,75.9223,VALID,0,VALID,24.5971,VALID,164,VALID,1.21563,
2012-06-24, 01:27:04,VALID,1000.9,VALID,0,VALID,76.0139,VALID,0,VALID,24.5775,VALID,151,VALID,1.19141,
2012-06-24, 01:28:04,VALID,1000.88,VALID,0,VALID,76.1207,VALID,0,VALID,24.5385,VALID,146,VALID,1.12031,
2012-06-24, 01:29:04,VALID,1000.91,VALID,0,VALID,76.4183,VALID,0,VALID,24.5404,VALID,149,VALID,0.883203,
2012-06-24, 01:30:04,VALID,1000.9,VALID,0,VALID,76.7235,VALID,0,VALID,24.5013,VALID,149,VALID,0.919922,
2012-06-24, 01:31:04,VALID,1000.93,VALID,0,VALID,77.0821,VALID,0,VALID,24.4428,VALID,149,VALID,1.08008,
2012-06-24, 01:32:04,VALID,1000.94,VALID,0,VALID,77.433,VALID,0,VALID,24.4037,VALID,152,VALID,0.899609,
2012-06-24, 01:33:04,VALID,1000.93,VALID,0,VALID,77.7153,VALID,0,VALID,24.3433,VALID,166,VALID,0.623438,
2012-06-24, 01:34:04,VALID,1000.95,VALID,0,VALID,77.9518,VALID,0,VALID,24.3043,VALID,166,VALID,0.787109,
2012-06-24, 01:35:04,VALID,1000.93,VALID,0,VALID,77.8984,VALID,0,VALID,24.3257,VALID,166,VALID,0.941016,
2012-06-24, 01:36:04,VALID,1000.95,VALID,0,VALID,77.6772,VALID,0,VALID,24.3043,VALID,170,VALID,0.989062,
2012-06-24, 01:37:04,VALID,1000.95,VALID,0,VALID,77.578,VALID,0,VALID,24.3452,VALID,172,VALID,1.06641,
2012-06-24, 01:38:04,VALID,1000.95,VALID,0,VALID,77.372,VALID,0,VALID,24.3433,VALID,189,VALID,0.91875,
2012-06-24, 01:39:04,VALID,1000.93,VALID,0,VALID,77.4559,VALID,0,VALID,24.3842,VALID,177,VALID,1.04258,
2012-06-24, 01:40:04,VALID,1000.93,VALID,0,VALID,76.8303,VALID,0,VALID,24.4233,VALID,171,VALID,1.4082,
2012-06-24, 01:41:04,VALID,1000.89,VALID,0,VALID,76.8455,VALID,0,VALID,24.4818,VALID,176,VALID,0.617969,
2012-06-24, 01:42:04,VALID,1000.88,VALID,0,VALID,76.7463,VALID,0,VALID,24.4818,VALID,164,VALID,1.12773,
2012-06-24, 01:43:04,VALID,1000.89,VALID,0,VALID,76.7311,VALID,0,VALID,24.4818,VALID,157,VALID,0.665234,
2012-06-24, 01:44:04,VALID,1000.95,VALID,0,VALID,76.4641,VALID,0,VALID,24.4818,VALID,149,VALID,1.00703,
2012-06-24, 01:45:04,VALID,1000.92,VALID,0,VALID,76.6701,VALID,0,VALID,24.4623,VALID,133,VALID,1.15078,
2012-06-24, 01:46:04,VALID,1000.92,VALID,0,VALID,77.0058,VALID,0,VALID,24.3824,VALID,133,VALID,0.853125,
2012-06-24, 01:47:04,VALID,1000.93,VALID,0,VALID,77.6543,VALID,0,VALID,24.3257,VALID,133,VALID,0.752734,
2012-06-24, 01:48:04,VALID,1000.93,VALID,0,VALID,78.1349,VALID,0,VALID,24.2476,VALID,133,VALID,0.641016,
2012-06-24, 01:49:04,VALID,1000.96,VALID,0,VALID,78.4325,VALID,0,VALID,24.1677,VALID,133,VALID,0.719922,
2012-06-24, 01:50:04,VALID,1000.94,VALID,0,VALID,78.7148,VALID,0,VALID,24.15,VALID,133,VALID,0.594531,
2012-06-24, 01:51:04,VALID,1000.94,VALID,0,VALID,78.9742,VALID,0,VALID,24.072,VALID,133,VALID,0.40625,
2012-06-24, 01:52:04,VALID,1000.97,VALID,0,VALID,79.3252,VALID,0,VALID,24.0311,VALID,133,VALID,0.153516,
2012-06-24, 01:53:04,VALID,1000.94,VALID,0,VALID,79.5846,VALID,0,VALID,23.9921,VALID,133,VALID,0,
2012-06-24, 01:54:04,VALID,1000.95,VALID,0,VALID,80.1797,VALID,0,VALID,23.9549,VALID,133,VALID,0.271484,
2012-06-24, 01:55:04,VALID,1000.98,VALID,0,VALID,82.3465,VALID,0,VALID,23.875,VALID,76,VALID,0.469141,
2012-06-24, 01:56:04,VALID,1000.97,VALID,0,VALID,82.9645,VALID,0,VALID,23.7988,VALID,76,VALID,0.3375,
2012-06-24, 01:57:04,VALID,1000.94,VALID,0,VALID,83.7427,VALID,0,VALID,23.7012,VALID,76,VALID,0.452734,
2012-06-24, 01:58:04,VALID,1000.93,VALID,0,VALID,84.4294,VALID,0,VALID,23.6232,VALID,76,VALID,0.611328,
2012-06-24, 01:59:04,VALID,1000.96,VALID,0,VALID,85.5357,VALID,0,VALID,23.5256,VALID,26,VALID,0.684766,
2012-06-24, 02:00:04,VALID,1000.93,VALID,0,VALID,85.2763,VALID,0,VALID,23.4866,VALID,27,VALID,0.640234,
2012-06-24, 02:01:04,VALID,1000.96,VALID,0,VALID,85.7264,VALID,0,VALID,23.4263,VALID,26,VALID,0.503906,
2012-06-24, 02:02:04,VALID,1000.96,VALID,0,VALID,86.0392,VALID,0,VALID,23.4475,VALID,27,VALID,0.449609,
2012-06-24, 02:03:04,VALID,1000.96,VALID,0,VALID,86.1918,VALID,0,VALID,23.4263,VALID,27,VALID,0.430859,
2012-06-24, 02:04:04,VALID,1000.94,VALID,0,VALID,85.467,VALID,0,VALID,23.428,VALID,27,VALID,0.488672,
2012-06-24, 02:05:04,VALID,1000.95,VALID,0,VALID,85.1771,VALID,0,VALID,23.4067,VALID,27,VALID,0.398828,
2012-06-24, 02:06:04,VALID,1000.95,VALID,0,VALID,84.6277,VALID,0,VALID,23.428,VALID,27,VALID,0.175781,
2012-06-24, 02:07:04,VALID,1000.89,VALID,0,VALID,84.6506,VALID,0,VALID,23.4067,VALID,27,VALID,0.515625,
2012-06-24, 02:08:04,VALID,1000.88,VALID,0,VALID,84.8795,VALID,0,VALID,23.4263,VALID,27,VALID,0.308594,
2012-06-24, 02:09:04,VALID,1000.87,VALID,0,VALID,85.7112,VALID,0,VALID,23.4085,VALID,27,VALID,0.454297,
2012-06-24, 02:10:04,VALID,1000.86,VALID,0,VALID,87.0082,VALID,0.104696,VALID,23.3695,VALID,27,VALID,0.312109,
2012-06-24, 02:11:04,VALID,1000.82,VALID,0,VALID,87.2905,VALID,0,VALID,23.2897,VALID,27,VALID,0.482812,
2012-06-24, 02:12:04,VALID,1000.79,VALID,0,VALID,87.5804,VALID,0,VALID,23.2915,VALID,58,VALID,0.894531,
2012-06-24, 02:13:04,VALID,1000.8,VALID,0,VALID,88.4044,VALID,0,VALID,23.2507,VALID,61,VALID,1.0125,
2012-06-24, 02:14:04,VALID,1000.76,VALID,0,VALID,89.6328,VALID,0,VALID,23.1921,VALID,62,VALID,1.11875,
2012-06-24, 02:15:04,VALID,1000.76,VALID,0,VALID,90.7467,VALID,0,VALID,23.1354,VALID,71,VALID,1.18047,
2012-06-24, 02:16:04,VALID,1000.76,VALID,0,VALID,91.174,VALID,0,VALID,23.0556,VALID,74,VALID,1.02539,
2012-06-24, 02:17:04,VALID,1000.79,VALID,0,VALID,91.4486,VALID,0,VALID,22.9776,VALID,77,VALID,1.06953,
2012-06-24, 02:18:04,VALID,1000.75,VALID,0,VALID,91.502,VALID,0,VALID,22.9403,VALID,79,VALID,1.30664,
2012-06-24, 02:19:04,VALID,1000.78,VALID,0,VALID,91.4105,VALID,0,VALID,22.8818,VALID,89,VALID,1.28281,
2012-06-24, 02:20:04,VALID,1000.76,VALID,0,VALID,91.5936,VALID,0,VALID,22.8623,VALID,100,VALID,0.928906,
2012-06-24, 02:21:04,VALID,1000.78,VALID,0,VALID,91.5478,VALID,0,VALID,22.8427,VALID,104,VALID,0.874609,
2012-06-24, 02:22:04,VALID,1000.78,VALID,0,VALID,91.6241,VALID,0,VALID,22.8215,VALID,106,VALID,0.319531,
2012-06-24, 02:23:04,VALID,1000.77,VALID,0,VALID,91.6928,VALID,0,VALID,22.7825,VALID,106,VALID,0.288281,
2012-06-24, 02:24:04,VALID,1000.77,VALID,0,VALID,91.7614,VALID,0,VALID,22.7842,VALID,106,VALID,0.146484,
2012-06-24, 02:25:04,VALID,1000.75,VALID,0,VALID,91.7462,VALID,0,VALID,22.763,VALID,106,VALID,0.207813,
2012-06-24, 02:26:04,VALID,1000.72,VALID,0,VALID,91.7843,VALID,0,VALID,22.7842,VALID,106,VALID,0.534766,
2012-06-24, 02:27:04,VALID,1000.72,VALID,0,VALID,91.7691,VALID,0,VALID,22.7647,VALID,106,VALID,0.396094,
2012-06-24, 02:28:04,VALID,1000.75,VALID,0,VALID,91.7996,VALID,0,VALID,22.7647,VALID,106,VALID,0.395703,
2012-06-24, 02:29:04,VALID,1000.71,VALID,0,VALID,91.7462,VALID,0,VALID,22.7647,VALID,106,VALID,0.00585938,
2012-06-24, 02:30:04,VALID,1000.67,VALID,0,VALID,91.5936,VALID,0,VALID,22.7452,VALID,106,VALID,0,
2012-06-24, 02:31:04,VALID,1000.69,VALID,0,VALID,91.6775,VALID,0.104696,VALID,22.7452,VALID,106,VALID,0,
2012-06-24, 02:32:04,VALID,1000.68,VALID,0,VALID,91.6546,VALID,0,VALID,22.724,VALID,106,VALID,0.308984,
2012-06-24, 02:33:04,VALID,1000.65,VALID,0,VALID,91.5631,VALID,0,VALID,22.7647,VALID,106,VALID,0.490234,
2012-06-24, 02:34:04,VALID,1000.63,VALID,0,VALID,91.4944,VALID,0,VALID,22.7435,VALID,102,VALID,0.599219,
2012-06-24, 02:35:04,VALID,1000.64,VALID,0,VALID,91.502,VALID,0,VALID,22.7825,VALID,87,VALID,0.683984,
2012-06-24, 02:36:04,VALID,1000.62,VALID,0,VALID,91.3189,VALID,0,VALID,22.802,VALID,66,VALID,0.752344,
2012-06-24, 02:37:04,VALID,1000.64,VALID,0,VALID,91.0595,VALID,0,VALID,22.8215,VALID,66,VALID,0.767187,
2012-06-24, 02:38:04,VALID,1000.64,VALID,0,VALID,90.884,VALID,0,VALID,22.8427,VALID,66,VALID,0.807813,
2012-06-24, 02:39:04,VALID,1000.64,VALID,0,VALID,90.8383,VALID,0,VALID,22.802,VALID,66,VALID,0.794922,
2012-06-24, 02:40:04,VALID,1000.61,VALID,0,VALID,90.7467,VALID,0,VALID,22.763,VALID,54,VALID,0.826563,
2012-06-24, 02:41:04,VALID,1000.61,VALID,0,VALID,90.6017,VALID,0,VALID,22.7062,VALID,51,VALID,0.99375,
2012-06-24, 02:42:04,VALID,1000.59,VALID,0,VALID,91.2579,VALID,0,VALID,22.6655,VALID,51,VALID,0.892578,
2012-06-24, 02:43:04,VALID,1000.56,VALID,0,VALID,91.4715,VALID,0,VALID,22.5874,VALID,51,VALID,0.908984,
2012-06-24, 02:44:04,VALID,1000.52,VALID,0,VALID,92.1124,VALID,0,VALID,22.5484,VALID,51,VALID,0.825781,
2012-06-24, 02:45:04,VALID,1000.53,VALID,0,VALID,92.3871,VALID,0.104696,VALID,22.5289,VALID,51,VALID,1.01758,
2012-06-24, 02:46:04,VALID,1000.53,VALID,0,VALID,92.5473,VALID,0,VALID,22.4721,VALID,51,VALID,1.02617,
2012-06-24, 02:47:04,VALID,1000.53,VALID,0,VALID,92.677,VALID,0,VALID,22.4314,VALID,51,VALID,1.05156,
2012-06-24, 02:48:04,VALID,1000.52,VALID,0,VALID,92.8372,VALID,0,VALID,22.3924,VALID,51,VALID,0.998047,
2012-06-24, 02:49:04,VALID,1000.53,VALID,0,VALID,92.7533,VALID,0,VALID,22.3941,VALID,54,VALID,0.746484,
2012-06-24, 02:50:04,VALID,1000.5,VALID,0,VALID,92.6388,VALID,0,VALID,22.3356,VALID,71,VALID,0.890234,
2012-06-24, 02:51:04,VALID,1000.48,VALID,0,VALID,92.5473,VALID,0.104696,VALID,22.2966,VALID,82,VALID,0.877344,
2012-06-24, 02:52:04,VALID,1000.48,VALID,0,VALID,92.4252,VALID,0,VALID,22.2559,VALID,85,VALID,1.14023,
2012-06-24, 02:53:04,VALID,1000.42,VALID,0,VALID,92.4939,VALID,0,VALID,22.2754,VALID,93,VALID,1.21172,
2012-06-24, 02:54:04,VALID,1000.4,VALID,0,VALID,92.4176,VALID,0,VALID,22.2771,VALID,94,VALID,0.9875,
2012-06-24, 02:55:04,VALID,1000.41,VALID,0,VALID,92.3718,VALID,0,VALID,22.3161,VALID,94,VALID,0.975,
2012-06-24, 02:56:04,VALID,1000.4,VALID,0,VALID,92.5854,VALID,0.104696,VALID,22.3339,VALID,94,VALID,0.882422,
2012-06-24, 02:57:04,VALID,1000.4,VALID,0,VALID,92.6999,VALID,0,VALID,22.3551,VALID,94,VALID,0.635547,
2012-06-24, 02:58:04,VALID,1000.4,VALID,0,VALID,92.5626,VALID,0,VALID,22.3534,VALID,94,VALID,0.674219,
2012-06-24, 02:59:04,VALID,1000.38,VALID,0,VALID,92.2955,VALID,0,VALID,22.3551,VALID,86,VALID,0.73125,
2012-06-24, 03:00:04,VALID,1000.35,VALID,0,VALID,92.1506,VALID,0,VALID,22.3551,VALID,85,VALID,0.614062,
2012-06-24, 03:01:04,VALID,1000.35,VALID,0,VALID,91.9751,VALID,0.104696,VALID,22.2949,VALID,85,VALID,0.1125,
2012-06-24, 03:02:04,VALID,1000.33,VALID,0,VALID,92.0209,VALID,0,VALID,22.2364,VALID,85,VALID,0.138281,
2012-06-24, 03:03:04,VALID,1000.35,VALID,0,VALID,92.0971,VALID,0,VALID,22.2381,VALID,85,VALID,0.437891,
2012-06-24, 03:04:04,VALID,1000.31,VALID,0,VALID,92.0895,VALID,0.104696,VALID,22.2381,VALID,85,VALID,0.55625,
2012-06-24, 03:05:04,VALID,1000.31,VALID,0,VALID,92.0895,VALID,0,VALID,22.2169,VALID,85,VALID,0.532422,
2012-06-24, 03:06:04,VALID,1000.31,VALID,0,VALID,92.1353,VALID,0,VALID,22.2381,VALID,85,VALID,0.488672,
2012-06-24, 03:07:04,VALID,1000.31,VALID,0,VALID,92.2726,VALID,0,VALID,22.2169,VALID,85,VALID,0.287891,
2012-06-24, 03:08:04,VALID,1000.32,VALID,0,VALID,92.3108,VALID,0.104696,VALID,22.2169,VALID,85,VALID,0.298047,
2012-06-24, 03:09:04,VALID,1000.3,VALID,0,VALID,92.5244,VALID,0.104696,VALID,22.2169,VALID,85,VALID,0.547266,
2012-06-24, 03:10:04,VALID,1000.29,VALID,0,VALID,92.7457,VALID,0,VALID,22.2576,VALID,85,VALID,0.389062,
2012-06-24, 03:11:04,VALID,1000.28,VALID,0,VALID,92.8143,VALID,0.104696,VALID,22.2576,VALID,85,VALID,0.455469,
2012-06-24, 03:12:04,VALID,1000.3,VALID,0,VALID,92.7304,VALID,0,VALID,22.2576,VALID,85,VALID,0.539844,
2012-06-24, 03:13:04,VALID,1000.27,VALID,0,VALID,92.7762,VALID,0,VALID,22.1974,VALID,85,VALID,0.512891,
2012-06-24, 03:14:04,VALID,1000.29,VALID,0,VALID,92.7533,VALID,0,VALID,22.1974,VALID,85,VALID,0.501953,
2012-06-24, 03:15:04,VALID,1000.29,VALID,0,VALID,92.738,VALID,0,VALID,22.1974,VALID,85,VALID,0.302344,
2012-06-24, 03:16:04,VALID,1000.27,VALID,0,VALID,92.7533,VALID,0,VALID,22.1974,VALID,85,VALID,0.148828,
2012-06-24, 03:17:04,VALID,1000.26,VALID,0,VALID,92.677,VALID,0,VALID,22.1779,VALID,85,VALID,0,
2012-06-24, 03:18:04,VALID,1000.25,VALID,0,VALID,92.5854,VALID,0,VALID,22.1795,VALID,85,VALID,0,
2012-06-24, 03:19:04,VALID,1000.2,VALID,0,VALID,92.6694,VALID,0,VALID,22.1584,VALID,85,VALID,0,
2012-06-24, 03:20:04,VALID,1000.23,VALID,0,VALID,92.8754,VALID,0,VALID,22.1779,VALID,85,VALID,0.366016,
2012-06-24, 03:21:04,VALID,1000.21,VALID,0,VALID,93.2416,VALID,0,VALID,22.2576,VALID,110,VALID,0.600391,
2012-06-24, 03:22:04,VALID,1000.18,VALID,0,VALID,93.3331,VALID,0,VALID,22.3356,VALID,113,VALID,0.676953,
2012-06-24, 03:23:04,VALID,1000.15,VALID,0,VALID,93.0966,VALID,0,VALID,22.3551,VALID,138,VALID,0.705469,
2012-06-24, 03:24:04,VALID,1000.13,VALID,0,VALID,92.8372,VALID,0,VALID,22.3941,VALID,138,VALID,0.566016,
2012-06-24, 03:25:04,VALID,1000.09,VALID,0,VALID,92.677,VALID,0,VALID,22.4331,VALID,153,VALID,0.735937,
2012-06-24, 03:26:04,VALID,1000.09,VALID,0,VALID,92.4023,VALID,0,VALID,22.4916,VALID,171,VALID,0.936328,
2012-06-24, 03:27:04,VALID,1000.09,VALID,0,VALID,92.1048,VALID,0,VALID,22.5696,VALID,172,VALID,1.10586,
2012-06-24, 03:28:04,VALID,1000.08,VALID,0,VALID,91.8759,VALID,0,VALID,22.6672,VALID,183,VALID,0.969922,
2012-06-24, 03:29:04,VALID,1000.07,VALID,0,VALID,91.5707,VALID,0,VALID,22.7647,VALID,185,VALID,0.890234,
2012-06-24, 03:30:04,VALID,1000.08,VALID,0,VALID,91.0748,VALID,0,VALID,22.8623,VALID,185,VALID,0.825781,
2012-06-24, 03:31:04,VALID,1000.13,VALID,0,VALID,90.4644,VALID,0,VALID,22.8995,VALID,185,VALID,0.617578,
2012-06-24, 03:32:04,VALID,1000.07,VALID,0,VALID,90.06,VALID,0,VALID,22.9385,VALID,184,VALID,0.521875,
2012-06-24, 03:33:04,VALID,1000.1,VALID,0,VALID,89.854,VALID,0,VALID,22.919,VALID,184,VALID,0.435156,
2012-06-24, 03:34:04,VALID,1000.12,VALID,0,VALID,89.732,VALID,0,VALID,22.9385,VALID,184,VALID,0.675,
2012-06-24, 03:35:04,VALID,1000.12,VALID,0,VALID,89.6023,VALID,0,VALID,22.9581,VALID,184,VALID,0.396875,
2012-06-24, 03:36:04,VALID,1000.13,VALID,0,VALID,89.5336,VALID,0,VALID,22.9793,VALID,184,VALID,0.455469,
2012-06-24, 03:37:04,VALID,1000.11,VALID,0,VALID,89.4954,VALID,0,VALID,22.9988,VALID,184,VALID,0.366016,
2012-06-24, 03:38:04,VALID,1000.13,VALID,0,VALID,89.526,VALID,0.104696,VALID,22.9581,VALID,184,VALID,0,
2012-06-24, 03:39:04,VALID,1000.12,VALID,0,VALID,89.5183,VALID,0,VALID,22.9403,VALID,184,VALID,0.139062,
2012-06-24, 03:40:04,VALID,1000.11,VALID,0,VALID,89.5031,VALID,0,VALID,22.9208,VALID,184,VALID,0,
2012-06-24, 03:41:04,VALID,1000.13,VALID,0,VALID,89.5412,VALID,0,VALID,22.8818,VALID,184,VALID,0.0710938,
2012-06-24, 03:42:04,VALID,1000.17,VALID,0,VALID,89.4726,VALID,0,VALID,22.8427,VALID,184,VALID,0.158203,
2012-06-24, 03:43:04,VALID,1000.13,VALID,0,VALID,89.6862,VALID,0,VALID,22.7842,VALID,184,VALID,0.244531,
2012-06-24, 03:44:04,VALID,1000.15,VALID,0,VALID,89.9914,VALID,0,VALID,22.763,VALID,110,VALID,0.589844,
2012-06-24, 03:45:04,VALID,1000.12,VALID,0,VALID,89.7091,VALID,0,VALID,22.7435,VALID,93,VALID,0.323047,